DLH4VV LSZH-EDDM

Flight info

Callsign DLH4VV
Flight time N/A
Altitude 22000
Route DEGES Z6 NUNRI/N0388F210 T103 BETOS BETOS1A
Aircraft A321/M-SDE3FGHIRWY/LB1

Departure

Time 2026-05-04 15:19
Airport Zürich Airport (LSZH)

Arrival

Time N/A
Airport Munich Airport (EDDM)
Time Latitude Longitude Altitude Speed Heading
2026-05-04 14:54 47.45560 8.56056 1409 ft 0 kts
2026-05-04 15:02 47.45559 8.56056 1409 ft 0 kts
2026-05-04 15:12 47.45560 8.56056 1409 ft 1 kts
2026-05-04 15:12 47.45581 8.56059 1409 ft 5 kts
2026-05-04 15:13 47.45618 8.56092 1414 ft 8 kts 73°
2026-05-04 15:13 47.45615 8.56199 1414 ft 13 kts 96°
2026-05-04 15:13 47.45604 8.56357 1416 ft 18 kts 96°
2026-05-04 15:13 47.45589 8.56564 1420 ft 22 kts 96°
2026-05-04 15:14 47.45572 8.56799 1420 ft 23 kts 96°
2026-05-04 15:14 47.45562 8.56945 1420 ft 10 kts 90°
2026-05-04 15:14 47.45580 8.56998 1422 ft 0 kts 45°
2026-05-04 15:16 47.45580 8.56997 1422 ft 0 kts 45°
2026-05-04 15:16 47.45620 8.57023 1425 ft 13 kts
2026-05-04 15:17 47.45671 8.56954 1424 ft 10 kts 252°
2026-05-04 15:17 47.45673 8.56855 1422 ft 0 kts 276°
2026-05-04 15:18 47.45678 8.56785 1420 ft 28 kts 276°
2026-05-04 15:19 47.45786 8.55253 1397 ft 144 kts 276°
2026-05-04 15:19 47.45896 8.53547 1529 ft 179 kts 274°
2026-05-04 15:19 47.46117 8.49953 3040 ft 174 kts 276°
2026-05-04 15:20 47.46150 8.48133 3461 ft 188 kts 258°
2026-05-04 15:20 47.45508 8.46328 3697 ft 210 kts 237°
2026-05-04 15:20 47.44735 8.44435 4190 ft 220 kts 241°
2026-05-04 15:20 47.44001 8.42413 4884 ft 225 kts 242°
2026-05-04 15:21 47.43280 8.40338 5621 ft 228 kts 241°
2026-05-04 15:21 47.42634 8.38598 6299 ft 228 kts 231°
2026-05-04 15:21 47.40052 8.36944 7603 ft 223 kts 170°
2026-05-04 15:22 47.38662 8.37857 8230 ft 227 kts 139°
2026-05-04 15:22 47.37795 8.39807 8875 ft 234 kts 107°
2026-05-04 15:22 47.38752 8.44320 10098 ft 251 kts 47°
2026-05-04 15:23 47.40004 8.46201 10658 ft 255 kts 47°
2026-05-04 15:23 47.41241 8.48057 11283 ft 258 kts 47°
2026-05-04 15:23 47.42508 8.49958 11917 ft 261 kts 47°
2026-05-04 15:23 47.43789 8.51880 12517 ft 264 kts 47°
2026-05-04 15:24 47.46081 8.56151 13506 ft 275 kts 75°
2026-05-04 15:24 47.46488 8.62100 13791 ft 312 kts 94°
2026-05-04 15:25 47.46425 8.65399 13912 ft 331 kts 94°
2026-05-04 15:25 47.46375 8.68903 14033 ft 350 kts 92°
2026-05-04 15:25 47.46382 8.72588 14153 ft 367 kts 91°
2026-05-04 15:26 47.46573 8.80347 14866 ft 384 kts 90°
2026-05-04 15:26 47.46393 8.84282 15348 ft 385 kts 102°
2026-05-04 15:26 47.45316 8.92101 16333 ft 392 kts 104°
2026-05-04 15:27 47.44744 8.96055 16825 ft 396 kts 104°
2026-05-04 15:27 47.43578 9.04081 17740 ft 404 kts 104°
2026-05-04 15:28 47.42397 9.12258 18576 ft 411 kts 103°
2026-05-04 15:28 47.42133 9.16483 18962 ft 417 kts 91°
2026-05-04 15:28 47.43270 9.24948 19760 ft 428 kts 69°
2026-05-04 15:29 47.44630 9.28877 20173 ft 432 kts 61°
2026-05-04 15:30 47.50817 9.44819 20795 ft 466 kts 62°
2026-05-04 15:30 47.55741 9.57638 21179 ft 488 kts 62°
2026-05-04 15:31 47.58098 9.67049 21629 ft 490 kts 82°
2026-05-04 15:31 47.58381 9.72063 21879 ft 488 kts 93°
2026-05-04 15:32 47.57817 9.87101 21972 ft 487 kts 96°
2026-05-04 15:32 47.57390 9.97106 21977 ft 487 kts 96°
2026-05-04 15:33 47.56957 10.07116 21977 ft 487 kts 96°
2026-05-04 15:34 47.56313 10.22131 21986 ft 487 kts 96°
2026-05-04 15:34 47.56103 10.27035 21986 ft 466 kts 96°
2026-05-04 15:34 47.55695 10.36350 21992 ft 449 kts 96°
2026-05-04 15:35 47.55264 10.45548 21998 ft 448 kts 96°
2026-05-04 15:35 47.55147 10.50108 21786 ft 438 kts 89°
2026-05-04 15:35 47.55521 10.54548 21528 ft 434 kts 78°
2026-05-04 15:36 47.57755 10.62768 21000 ft 431 kts 59°
2026-05-04 15:36 47.59294 10.66560 20688 ft 426 kts 59°
2026-05-04 15:36 47.60801 10.70291 20173 ft 420 kts 60°
2026-05-04 15:37 47.62288 10.73990 19698 ft 414 kts 60°
2026-05-04 15:37 47.63399 10.76764 19335 ft 409 kts 60°
2026-05-04 15:37 47.64837 10.80371 18832 ft 404 kts 60°
2026-05-04 15:37 47.66258 10.83943 18330 ft 400 kts 60°
2026-05-04 15:38 47.67740 10.87409 17793 ft 396 kts 54°
2026-05-04 15:38 47.69537 10.90455 17305 ft 390 kts 44°
2026-05-04 15:38 47.71689 10.92865 16849 ft 393 kts 27°
2026-05-04 15:38 47.74176 10.94661 16380 ft 400 kts 24°
2026-05-04 15:39 47.76703 10.96393 15973 ft 400 kts 24°
2026-05-04 15:39 47.79228 10.98110 15591 ft 399 kts 24°
2026-05-04 15:39 47.84250 11.01513 14789 ft 395 kts 24°
2026-05-04 15:40 47.86742 11.03199 14362 ft 392 kts 24°
2026-05-04 15:40 47.89219 11.04870 13933 ft 390 kts 24°
2026-05-04 15:40 47.91654 11.06506 13482 ft 387 kts 24°
2026-05-04 15:40 47.94137 11.08172 12977 ft 386 kts 24°
2026-05-04 15:41 47.96578 11.09811 12512 ft 384 kts 24°
2026-05-04 15:41 47.99007 11.11449 12050 ft 382 kts 24°
2026-05-04 15:41 48.01417 11.13081 11582 ft 379 kts 24°
2026-05-04 15:41 48.03812 11.14709 11084 ft 377 kts 24°
2026-05-04 15:42 48.06188 11.16333 10554 ft 374 kts 24°
2026-05-04 15:42 48.08514 11.17927 9990 ft 371 kts 24°
2026-05-04 15:42 48.10850 11.19536 9390 ft 368 kts 25°
2026-05-04 15:42 48.13129 11.21094 8861 ft 348 kts 24°
2026-05-04 15:43 48.15266 11.22551 8286 ft 328 kts 24°
2026-05-04 15:43 48.17297 11.23935 7610 ft 314 kts 24°
2026-05-04 15:43 48.19248 11.25259 7031 ft 301 kts 24°
2026-05-04 15:43 48.21092 11.26573 6502 ft 287 kts 32°
2026-05-04 15:44 48.22559 11.28500 5955 ft 278 kts 51°
2026-05-04 15:44 48.23741 11.30790 5586 ft 278 kts 54°
2026-05-04 15:44 48.24874 11.33108 5367 ft 274 kts 54°
2026-05-04 15:44 48.25997 11.35426 5222 ft 274 kts 54°
2026-05-04 15:45 48.27110 11.37739 5076 ft 273 kts 54°
2026-05-04 15:45 48.28222 11.40052 4831 ft 272 kts 54°
2026-05-04 15:45 48.29321 11.42349 4599 ft 270 kts 54°
2026-05-04 15:45 48.30411 11.44637 4419 ft 269 kts 54°
2026-05-04 15:46 48.31499 11.46927 4259 ft 269 kts 54°
2026-05-04 15:46 48.32526 11.49264 4080 ft 267 kts 65°
2026-05-04 15:46 48.32774 11.51950 4001 ft 257 kts 101°
2026-05-04 15:46 48.32374 11.54443 4013 ft 235 kts 98°
2026-05-04 15:47 48.32532 11.56797 3836 ft 223 kts 77°
2026-05-04 15:47 48.32795 11.59058 3580 ft 217 kts 82°
2026-05-04 15:47 48.32984 11.61285 3311 ft 214 kts 83°
2026-05-04 15:47 48.33153 11.63430 3027 ft 199 kts 83°
2026-05-04 15:48 48.33308 11.65412 2791 ft 182 kts 83°
2026-05-04 15:48 48.33450 11.67218 2555 ft 166 kts 83°
2026-05-04 15:48 48.33702 11.70443 2145 ft 149 kts 81°
2026-05-04 15:49 48.33822 11.71976 1949 ft 147 kts 81°
2026-05-04 15:49 48.33940 11.73494 1749 ft 146 kts 81°